Powrót do katalogu

STARLINK-11364

AktywnyŁącznośćVLEO
NORAD 61543·PAYLOAD·🇺🇸 United States

Wystrzelony Oct 15, 2024 z Vandenberg Space Force Base

Loading…

Następne Przeloty (najbliższe 24 godziny)

TLE

ŚwieżeSource: CelesTrak SupGP

Epoka: Sep 15, 2026, 02:12 UTC

1 61543C 24184M   26258.09215278 -.00078476  00000+0 -64625-3 0  2582
2 61543  53.1575  22.7742 0000993  81.7403 235.0967 15.69755702    15

Śledź STARLINK-11364 w czasie rzeczywistym z AllMySat

Download on the App Store